STARLINK-35221

Last updated on Mon Oct 20 2025 00:02:06 GMT+0000 (Coordinated Universal Time)

1 65695U 25212V 25292.22910681 -.00359458 00000+0 -69797-2 0 9997 2 65695 53.1582 282.8571 0000409 49.2071 310.8973 15.48389230 5599
UTC large
Height (km)
Speed (km/s)
/
Latitude / Longitude
Inclination (degrees)
Orbital Period (minutes)
Azimuth
Elevation
Range (km)
Doppler Factor

Next 0 passes for location: London (51.5072 / 0.1276)

Sorry there are no passes over London.